User: anonymous   Login
Location: Unspecified
(0.0000°N, 0.0000°E)
Time: 16:37:57
(UTC+00:00)
Language:

STARS - Orbit

View from above orbital plane
View from above orbital plane
View from above satellite
View from above satellite

Ground track
Ground track

The orbit data is extracted from the following two-line orbital elements,

1 33498U 09002G   17200.40868519 +.00000275 +00000-0 +45231-4 0  9992
2 33498 098.3250 015.4733 0009836 244.4036 173.0261 14.78594725456230
Epoch (UTC): 19 July 2017 09:48:30
Eccentricity: 0.0009836
inclination: 98.3250°
perigee height: 627 km
apogee height: 640 km
right ascension of ascending node: 15.4733°
argument of perigee: 244.4036°
revolutions per day: 14.78594725
mean anomaly at epoch: 173.0261°
orbit number at epoch: 45623

The dashed part of the orbit path shows where the satellite is in the earth's shadow,  

DLR